Regional Weather Roundup
Issued by NWS Little Rock, AR

Home | Current Version | Previous Version | Text Only | Print | Product List | Glossary Off
Versions: 1 2 3 4 5 6 7 8 9 10 11 12 13 14 15 16 17 18 19 20 21 22 23 24 25 26 27 28 29 30 31 32 33 34 35 36 37 38 39 40 41 42 43 44 45 46 47 48 49 50

000
ASUS44 KLZK 191705
RWRLZK

WEATHER ROUNDUP FOR ARKANSAS
NATIONAL WEATHER SERVICE LITTLE ROCK AR
1100 AM CST FRI DEC 19 2014

NOTE: "FAIR" INDICATES FEW OR NO CLOUDS BELOW 12,000 FEET WITH NO
SIGNIFICANT WEATHER AND/OR OBSTRUCTIONS TO VISIBILITY.

ARZ001-003-010-029-191800-
NORTHWEST ARKANSAS

CITY           SKY/WX    TMP DP  RH WIND       PRES   REMARKS
FAYETTEVILLE   CLOUDY    40  40 100 CALM      30.25R FOG
FORT SMITH     CLOUDY    43  39  86 E6        30.27R FOG
HARRISON       FOG       37  37 100 E6        30.24S VSB 1/4
BENTONVILLE    CLOUDY    41  37  87 CALM      30.25R
ROGERS         LGT RAIN  40  38  93 CALM      30.25R
SILOAM SPGS    CLOUDY    39  36  87 CALM      30.26S
HIGHFILL       CLOUDY    40  40 100 CALM      30.24R FOG
SPRINGDALE     CLOUDY    39  39 100 CALM      30.27R FOG
$$

ARZ004-005-016-191800-
NORTH CENTRAL ARKANSAS

CITY           SKY/WX    TMP DP  RH WIND       PRES   REMARKS
BATESVILLE     CLOUDY    39  34  81 E8        30.30F
FLIPPIN        CLOUDY    37  34  87 E5        30.27S
MTN HOME       CLOUDY    37  35  92 E7        30.26F FOG
$$

ARZ040-041-191800-
WEST CENTRAL ARKANSAS

CITY           SKY/WX    TMP DP  RH WIND       PRES   REMARKS
MENA           CLOUDY    43  41  93 E3        30.23F
MOUNT IDA      LGT RAIN  41  39  93 CALM      30.24S
$$

ARZ009-017-025-026-028-191800-
NORTHEAST ARKANSAS

CITY           SKY/WX    TMP DP  RH WIND       PRES   REMARKS
CORNING        FAIR      39  32  75 NE7       30.32R HAZE
JONESBORO      CLOUDY    40  34  79 NE9       30.30F
NEWPORT        CLOUDY    40  35  82 NE8       30.32S
WALNUT RIDGE   CLOUDY    39  32  75 NE8       30.31R
BLYTHEVILLE    CLOUDY    40  33  76 E6        30.30F
NW BLYTHEVILLE CLOUDY    39  32  75 NE9       30.30
$$

ARZ022-023-033-042-044-191800-
CENTRAL ARKANSAS

CITY           SKY/WX    TMP DP  RH WIND       PRES   REMARKS
LITTLE ROCK    CLOUDY    44  37  76 E6        30.31R
N LITTLE ROCK  CLOUDY    42  39  91 E7        30.31R
JACKSONVILLE   CLOUDY    42  37  82 E5        30.30R
SEARCY         CLOUDY    42  37  82 NE8       30.31F
HOT SPRINGS    LGT RAIN  41  39  93 E5        30.28R FOG
RUSSELLVILLE   CLOUDY    43  39  86 NE6       30.27R
CLINTON        CLOUDY    41  37  87 E3        30.30S FOG
$$

ARZ036-191800-
EAST ARKANSAS

CITY           SKY/WX    TMP DP  RH WIND       PRES   REMARKS
WEST MEMPHIS   CLOUDY    42  35  76 NE6       30.28F
$$

ARZ050-053-066-070-073-191800-
SOUTHWEST ARKANSAS

CITY           SKY/WX    TMP DP  RH WIND       PRES   REMARKS
ARKADELPHIA    LGT RAIN  43  43 100 E5        30.29F FOG
CAMDEN         LGT RAIN  45  39  81 MISG      30.29S
TEXARKANA      CLOUDY    43  43 100 E12       30.22F FOG
EL DORADO      RAIN      44  41  89 NW6       30.28R FOG
DE QUEEN       LGT RAIN  44  42  93 NE6       30.22F FOG
$$

ARZ056-057-069-191800-
SOUTHEAST ARKANSAS

CITY           SKY/WX    TMP DP  RH WIND       PRES   REMARKS
PINE BLUFF     CLOUDY    44  39  82 NE9       30.29R
STUTTGART      CLOUDY    43  37  81 NE10      30.29S
MONTICELLO     CLOUDY    45  40  82 N3        30.28R

$$





USA.gov is the U.S. government's official web portal to all federal, state and local government web resources and services.